Погода Ганюшкино

Погода Ганюшкино : погода сейчас, прогноз погоды и архив. Всё, что Вы хотите узнать о погоде Ганюшкино!

Хотите узнать прогноз погоды Ганюшкино? Тогда Вам сюда: Погода Ганюшкино

Поиск расширенной информации на нашем сайте:

Другие новости

Новости СМИ2

Главная страница сайта

Новости сайта

03.07.2017

Напоминаем, что на нашем специализированном сайте Метеоцентр.Азия вы можете получить высокодетализированные автоматические прогнозы погоды по пунктам России, СНГ и мира в авиационном формате (включающие направление и скорость ветра, видимость, явления погоды, количество и форму облачности, нижнюю и верхнюю границу облачности).

Рекомендуем: Эксклюзивные диски на авто luxurywheels эксклюзивные.

Погода Ганюшкино - сегодня

Время (UTC), дата Ветер
(°,м/с) 
Видим.   Явления Облачность Т
(°С)
Тd
(°С)
f(%) Тe
(°С)
Pmin
(гПа)
dP
(гПа)
Po
(мм)
O2
(г/м3)
Тmin Tmax R s Состояние
почвы
00 17.08.17 060 (СВ) 10 км    10/0 средняя 
[Ac und]
+22.8 +14.3 59 +30  1016.8  -0.4  765  282           
03 17.08.17 080 (В) 10 км    10/0 средняя 
[Ac und]
+25.4 +14.3 50 +32  1017.2  0.4  765  279  +21.5        сухая 
06 17.08.17 100 (В) 10 км    8/0 средняя, верхняя 
[Ac lent|Ci]
+27.8 +15.2 46 +36  1018.5  1.3  766  277  +21.5         
09 17.08.17 090 (В) 10 км    8/0 средняя, верхняя 
[Ac lent|Ci sp]
+30.4 +9.2 27 +30  1019.2  0.7  767  276           
12 17.08.17 120 (ЮВ) 20000 м    5/0 средняя, верхняя 
[Ac lent|Ci fib]
+30.6 +8.1 25 +31  1019.3  767  276           
15 17.08.17 090 (В) 20000 м    4/0 средняя 
[Ac cuf]
+28.3 +7.6 27 +28  1018.1  -1.1  766  278    +31.9       
18 17.08.17 060 (СВ) 10 км    ясно 
+20.3 +9.2 49 +20  1018  -0.1  766  286    +31.9       
21 17.08.17 050 (СВ) 10 км    ясно 
+19.3 +9.5 53 +20  1017.4  -0.6  765  286           
00 18.08.17 060 (СВ) 10 км    4/0 верхняя 
[Ci fib]
+18.8 +7.7 48 +19  1017.1  765  287           
03 18.08.17 050 (СВ) 10 км    5/0 средняя 
[Ac cast]
+21.2 +4.6 34 +21  1017.6  0.5  765  285           
06 18.08.17 060 (СВ) 10 км    5/0 верхняя 
[Ci fib]
+30.3 +6.4 22 +30  1017.6  765  277  +18.3         
09 18.08.17 110 (В) 10 км    8/0 верхняя 
[Ci fib]
+33 +5.3 18 +33  1018  0.3  766  274           
12 18.08.17 120 (ЮВ) 10 км    8/0 верхняя 
[Ci fib]
+31.7 +5.9 20 +32  1018.2  0.2  766  276           
15 18.08.17 100 (В) 10 км    8/0 верхняя 
[Ci fib]
+28.6 +10.5 32 +30  1017.7  -0.4  765  277    +33.5       
18 18.08.17 050 (СВ) 10 км    8/0 верхняя 
[Ci fib]
+21.7 +9.2 45 +22  1018.2  0.5  766  284    +33.5       
21 18.08.17 030 (СВ) 10 км    6/0 кучево-дожд., средняя, верхняя 
[Cb calv|Ac trans|Ci fib]
+19.4 +9.9 54 +21    -0.1             
00 19.08.17 020 (С) 10 км    4/0 верхняя 
[Ci fib]
+18.4 +10 58 +21  1018.3  0.2  766  287           
03 19.08.17 060 (СВ) 10 км    ясно 
+16 +10.5 70 +18  1018.6  0.3  751  284           
06 19.08.17 080 (В) 10 км    ясно 
+31.6 +9.9 26 +32  1019.6  0.9  767  275  +14.6         
09 19.08.17 110 (В) 20000 м    3/3 1000 м 
[Cu hum]
+33.8 +7.8 20 +34  1019.4  -0.2  767  274           
12 19.08.17 150 (ЮВ) 20000 м    ясно 
+33.4 +8 21 +33  1019.6  0.2  767  274           
15 19.08.17 100 (В) 20000 м    3/0 верхняя 
[Ci fib]
+29.4 +12.6 36 +34  1019.6  0.1  767  277    +34.6       
18 19.08.17 070 (В) 10 км    ясно 
+22.3 +13.3 57 +28  1020  0.4  767  283    +34.6       
21 19.08.17 060 (СВ) 10 км    ясно 
+21.4 +13.8 62 +28  1020.1  0.1  767  284           
00 20.08.17 070 (В) 10 км    8/0 верхняя 
[Cs]
+23.6 +14.3 56 +31  1019.9  -0.2  767  282           
Время (UTC), дата Ветер
(°,м/с) 
Видим.   Явления Облачность Т
(°С)
Тd
(°С)
f(%) Тe
(°С)
Pmin
(гПа)
dP
(гПа)
Po
(мм)
O2
(г/м3)
Тmin Tmax R s Состояние
почвы

Для получения пояснительной информации подведите курсор к названию столбца.

ПОГОДА Ганюшкино - архив

Всё, что Вы хотите узнать о погоде Ганюшкино - удобно и подробно!

Выберите нужную дату (начиная с 1 января 2015* года) и нажмите кнопку "Найти".
Будут отображены архивные сводки погоды по пункту Ганюшкино, начиная с указанной даты.


Отображать данные в формате CSV (для использования в таблицах Excel)


Внимание! Наш архив погоды предназначен исключительно для личного некоммерческого использования в познавательных целях. Если Вам необходимы официальные справки о состоянии погоды (для производственных, юридических, коммерческих и т.п. целей), обращайтесь в органы Росгидромета.

*Примечание: данная дата относится к архиву по метеостанциям СССР (Россия, СНГ, Балтия).
Архив по метеостанциям Зарубежной Европы и Азии (кроме Китая) хранится 10 дней, по другим регионам земного шара (Китай, Африка, Америка, Австралия, Океания) - 1 день.

Ганюшкино - район местоположения метеостанции


Название, широта, долгота, высота метеостанции:
Ганюшкино 46.6°ш. 49.3°д. -23 м над ур. моря [Казахстан]

Дополнительная информация

В oтличие oт бoльшинства пoгoдных сайтoв мы публикуем пoдрoбную метеoинфoрмацию в детальнoм прoфессиoнальнoм фoрмате.

Характеристики температуры и влажнoсти вoздуха измеряются на высoте 2 м в тени вдали oт зданий и деревьев.
Скoрoсть ветра измеряется на высoте 10 м (на урoвне рoста челoвека скoрoсть ветра ниже в 1.5-2 раза). Если метеoстанция нахoдится в гoрoде или в лесу, тo скoрoсть ветра занижена на 2-4 м/с пo сравнению с oткрытым местoм. Скoрoсть ветра над акватoриями крупных рек и oзёр, а также на вершинах хoлмoв на 2-5 м/с выше, чем в oбычных услoвиях.
Атмoсфернoе давление в разных тoчках местнoсти мoжет значительнo oтличаться oт давления на метеoстанции, в зависимoсти oт услoвий рельефа (при пoдъёме на 10 м давление пoнижается примернo на 1 мм рт.ст.).